Weather History for KSAD - May, 2013

Change the Weather History Date:

Tuesday, May 7, 2013

  Actual Average Record
Temperature  
Mean Temperature 67 °F -  
Max Temperature 82 °F 82 °F 100 °F (1989)
Min Temperature 52 °F 47 °F 31 °F (1975)
Cooling Degree Days 2    
Growing Degree Days 17 (Base 50)    
Moisture  
Dew Point 29 °F    
Average Humidity 25    
Maximum Humidity 47    
Minimum Humidity 11    
Precipitation  
Precipitation 0.00 in - - ()
Sea Level Pressure  
Sea Level Pressure 29.84 in    
Wind  
Wind Speed 7 mph (WNW)    
Max Wind Speed 18 mph    
Max Gust Speed 31 mph    
Visibility 10 miles    
Events      
Averages and records for this station are not official NWS values.
T = Trace of Precipitation, MM = Missing Value Source: NWS Daily Summary

Daily Weather History Graph

Daily Weather History Graph

Search for Another Location

Airport or City:

Trip Planner

Search our weather history database for the weather conditions in past years. The results will help you decide how hot, cold, wet, or windy it might be!

Date:

Astronomy

May. 07, 2013 Rise Set
Actual Time 5:25 AM MST 7:05 PM MST
Civil Twilight 4:58 AM MST 7:31 PM MST
Nautical Twilight 4:26 AM MST 8:04 PM MST
Astronomical Twilight 3:52 AM MST 8:37 PM MST
Moon 3:54 AM MST (5/7) 5:13 PM MST (5/7)
Length of Visible Light 14h 33m
Length of Day
13h 39m
Waning Crescent, 5% of the Moon is Illuminated
May 7
Waning Crescent
May 9
New
May 17
First Quarter
May 24
Full
May 31
Last Quarter

Hourly Weather History & Observations

Time (MST) Temp. Dew Point Humidity Pressure Visibility Wind Dir Wind Speed Gust Speed Precip Events Conditions
12:51 AM 64.0 °F 34.0 °F 33% 29.85 in 10.0 mi NW 8.1 mph - N/A   Clear
1:51 AM 62.1 °F 33.1 °F 34% 29.85 in 10.0 mi WNW 6.9 mph - N/A   Clear
2:51 AM 57.0 °F 32.0 °F 39% 29.87 in 10.0 mi Calm Calm - N/A   Clear
3:51 AM 55.0 °F 33.1 °F 43% 29.87 in 10.0 mi Calm Calm - N/A   Clear
4:51 AM 54.0 °F 33.1 °F 45% 29.88 in 10.0 mi East 5.8 mph - N/A   Clear
5:51 AM 52.0 °F 32.0 °F 47% 29.91 in 10.0 mi East 4.6 mph - N/A   Clear
6:51 AM 60.1 °F 33.1 °F 36% 29.92 in 10.0 mi Calm Calm - N/A   Clear
7:51 AM 64.9 °F 33.1 °F 31% 29.92 in 10.0 mi Calm Calm - N/A   Clear
8:51 AM 68.0 °F 33.1 °F 27% 29.92 in 10.0 mi Variable 4.6 mph - N/A   Clear
9:51 AM 72.0 °F 30.9 °F 22% 29.91 in 10.0 mi Variable 5.8 mph - N/A   Clear
10:51 AM 72.0 °F 30.9 °F 22% 29.90 in 10.0 mi Variable 3.5 mph - N/A   Clear
11:51 AM 75.0 °F 30.9 °F 20% 29.86 in 10.0 mi Calm Calm - N/A   Clear
12:51 PM 77.0 °F 30.9 °F 19% 29.83 in 10.0 mi Variable 3.5 mph - N/A   Clear
1:51 PM 80.1 °F 28.9 °F 15% 29.81 in 10.0 mi North 6.9 mph - N/A   Clear
2:51 PM 81.0 °F 27.0 °F 14% 29.79 in 10.0 mi Variable 5.8 mph - N/A   Clear
3:51 PM 80.1 °F 25.0 °F 13% 29.76 in 10.0 mi SSW 6.9 mph 17.3 mph N/A   Partly Cloudy
4:51 PM 82.9 °F 25.0 °F 12% 29.74 in 10.0 mi SSW 6.9 mph 31.1 mph N/A   Partly Cloudy
5:30 PM 80.6 °F 26.6 °F 14% 29.86 in 10.0 mi West 15.0 mph 21.9 mph N/A   Clear
5:51 PM 80.1 °F 26.1 °F 14% 29.75 in 10.0 mi WNW 16.1 mph 25.3 mph N/A   Clear
6:51 PM 78.1 °F 19.9 °F 11% 29.75 in 10.0 mi West 15.0 mph - N/A   Clear
7:51 PM 73.9 °F 18.0 °F 12% 29.76 in 10.0 mi West 11.5 mph - N/A   Clear
8:51 PM 71.1 °F 19.9 °F 14% 29.78 in 10.0 mi WNW 15.0 mph - N/A   Clear
9:51 PM 68.0 °F 24.1 °F 19% 29.80 in 10.0 mi WNW 17.3 mph - N/A   Clear
10:51 PM 66.0 °F 34.0 °F 30% 29.83 in 10.0 mi NW 17.3 mph - N/A   Clear
11:51 PM 66.0 °F 34.0 °F 30% 29.82 in 10.0 mi WNW 18.4 mph 25.3 mph N/A   Clear